Theta_e
301 301 301 302 301 301 301 301 301 301 301 301 301 301 300 298 298 301 303 304 304 305 305 306 306 306 307 307 307 307 307 307 307 306 306 307 307 306 304 304 305 306 308 311 310 310 309 308 308 309 311 311 310 311 311 311 312 314 316 316 315 315 314 314 315 314 315 317 316 315 315 315 315 316 317 317 322 333 340 340 343 344 343 345 346 345 346 346
300 299 300 301 301 301 301 301 301 302 301 301 301 301 301 299 297 297 299 301 303 304 305 305 305 306 306 307 307 307 307 307 307 306 307 309 309 306 304 304 303 305 307 309 311 311 310 310 309 310 311 311 311 310 311 311 312 313 316 316 314 315 314 313 314 313 314 316 315 315 315 314 315 316 317 317 324 337 346 346 345 346 346 347 347 346 345 344
299 299 299 300 299 300 300 300 300 301 301 301 301 301 301 301 300 297 296 297 300 303 304 304 305 305 305 306 307 307 307 307 306 307 307 308 309 308 306 304 303 305 307 308 310 311 310 311 310 310 310 311 311 311 311 312 313 313 315 315 313 314 314 313 314 313 314 316 314 314 314 315 317 316 318 317 318 335 352 350 346 347 347 346 346 345 344 343
299 299 299 299 299 299 299 299 299 300 300 300 301 301 301 301 301 300 298 296 297 300 302 303 304 304 304 305 306 307 307 306 306 306 308 308 308 309 307 307 304 304 307 307 309 311 310 310 310 310 310 310 311 311 312 312 314 314 314 314 313 314 314 313 314 315 315 315 314 314 314 315 317 316 317 317 316 329 340 342 345 347 347 346 345 344 344 343
299 299 299 299 300 300 300 300 300 299 299 300 300 300 301 301 301 301 300 299 297 297 299 301 303 304 304 304 305 306 306 306 307 307 308 308 308 308 307 308 305 304 307 307 309 311 310 310 310 309 309 310 311 312 313 313 315 316 315 315 314 313 314 314 314 315 315 315 315 313 314 315 316 317 317 316 316 321 325 332 344 347 346 346 345 345 344 343
299 299 300 299 299 300 300 301 301 300 300 300 300 300 300 301 301 301 301 301 299 297 296 298 301 303 304 304 304 306 306 307 308 309 309 308 308 307 307 308 306 304 305 307 309 310 310 311 310 309 309 310 311 311 312 313 315 316 316 315 315 314 313 315 314 315 315 314 314 313 315 315 315 317 315 320 325 326 328 335 345 347 347 346 345 345 344 344
300 300 300 299 299 300 300 300 301 300 300 300 301 301 300 300 301 301 301 301 301 299 297 296 299 301 303 303 304 305 305 306 307 309 309 307 307 306 307 308 308 306 304 305 308 310 310 310 310 309 310 312 311 311 311 313 314 315 316 315 316 316 314 315 315 315 315 314 314 314 316 314 316 315 316 334 340 337 339 342 346 347 346 346 346 345 344 344
299 299 299 299 299 299 299 299 300 300 300 300 300 301 301 300 300 300 301 301 301 300 299 297 297 299 301 303 304 305 305 306 305 307 307 306 306 306 306 307 308 309 307 306 308 310 310 310 310 309 310 311 311 311 311 312 313 314 315 316 316 316 315 316 315 315 315 315 314 314 315 314 317 313 322 343 346 344 345 346 347 347 346 346 346 345 345 345
299 298 299 299 299 299 299 299 299 299 299 300 300 301 300 301 300 299 299 300 301 300 300 299 298 298 300 302 303 304 305 304 303 305 305 305 305 305 306 306 306 307 309 309 309 309 310 310 310 309 309 310 311 312 312 312 312 313 314 315 316 316 316 316 316 316 315 315 314 314 315 314 317 313 327 344 347 346 348 347 347 347 347 346 346 346 345 345
300 300 300 300 301 301 301 300 299 298 299 299 300 300 300 300 300 300 298 298 300 300 300 300 299 298 299 301 302 304 304 301 303 305 306 305 305 305 306 306 306 306 308 309 309 309 310 310 309 309 309 310 311 312 312 312 312 313 314 315 315 315 316 315 315 316 316 316 314 315 315 315 318 312 326 343 346 347 348 347 348 346 345 346 346 346 346 346
301 301 301 301 301 301 301 301 300 299 299 300 300 300 300 300 300 300 298 297 298 300 300 300 299 299 298 300 302 303 302 300 302 304 305 305 305 305 306 306 306 306 307 308 309 308 308 309 309 309 308 309 311 311 312 312 312 312 313 314 314 314 315 314 314 314 315 317 315 316 315 315 318 311 325 344 346 346 348 347 347 346 344 344 344 345 345 345
301 301 301 301 301 302 301 301 301 301 300 300 300 300 300 299 299 300 299 298 297 298 300 300 300 299 299 299 300 302 300 301 301 302 304 305 305 305 305 305 306 305 306 307 308 308 307 308 308 309 309 310 310 312 313 312 312 312 312 313 313 314 315 314 314 313 314 315 316 316 315 316 315 313 330 345 345 345 347 346 346 345 344 343 343 343 344 345
301 301 301 301 302 302 301 301 302 302 302 301 301 300 300 300 299 299 298 298 296 295 298 300 300 300 300 299 300 297 298 298 298 299 301 303 304 304 304 305 306 305 305 306 308 309 307 307 308 308 309 310 311 312 313 311 312 311 312 312 312 313 313 314 314 313 314 314 316 315 315 318 315 323 339 345 344 345 344 344 344 344 343 342 342 342 343 343
300 300 301 301 301 301 301 301 301 302 302 302 301 301 301 300 300 299 298 298 297 295 297 300 300 300 300 300 298 296 297 297 297 297 298 300 301 303 304 305 306 306 306 306 307 308 308 307 307 307 308 309 311 312 311 311 311 311 312 312 312 312 312 314 314 314 314 313 316 314 315 319 318 331 344 344 343 345 343 343 343 343 343 341 341 341 342 342
300 300 300 300 300 300 301 301 301 302 302 302 302 301 301 301 300 299 298 297 297 296 296 299 300 300 300 299 297 298 299 299 299 298 298 300 300 302 304 305 306 306 306 307 307 308 308 308 307 308 308 308 309 310 311 312 312 311 312 312 311 312 313 313 313 314 314 313 315 314 316 319 316 330 343 343 342 344 342 342 342 341 341 340 341 341 341 341
300 300 300 300 300 301 301 301 301 301 301 302 302 301 301 300 299 299 297 297 297 297 298 299 300 300 300 300 298 300 300 299 301 301 302 302 302 304 304 305 306 306 306 307 307 308 308 307 307 308 307 308 309 310 311 313 313 311 311 313 312 312 313 313 313 313 313 314 315 313 319 320 316 329 342 342 341 343 341 341 340 340 339 339 341 341 341 341
300 300 300 300 301 301 301 301 301 301 301 301 301 301 301 299 297 297 296 297 297 297 299 299 299 299 300 300 299 300 299 299 300 302 303 303 304 304 304 305 306 306 307 307 308 307 308 308 308 308 308 308 310 310 312 313 314 312 310 312 313 311 312 312 313 312 313 315 314 314 318 319 323 332 340 341 341 341 340 340 339 339 338 338 340 341 341 341
300 300 300 301 301 301 301 301 301 301 301 301 301 301 299 297 296 296 297 298 297 298 299 299 300 300 300 299 299 300 299 300 300 301 302 303 303 304 305 305 306 307 307 307 308 307 307 308 308 310 309 309 309 310 312 312 313 313 311 313 313 311 311 312 313 312 314 314 314 316 314 321 333 335 337 339 341 340 339 339 338 338 337 337 339 339 340 340
299 300 301 301 301 301 301 302 302 301 301 301 301 300 298 297 297 298 300 300 299 299 300 300 300 300 300 299 299 300 299 300 300 301 302 303 304 304 305 306 306 307 306 306 307 307 308 308 308 310 309 309 309 309 311 312 312 313 314 315 314 312 312 312 313 314 314 313 314 316 313 326 339 336 334 337 338 339 338 338 338 337 337 337 338 338 338 339
300 301 301 301 301 301 301 302 301 301 301 300 300 299 298 299 299 299 300 300 300 300 299 300 300 300 300 300 299 300 300 300 301 301 302 303 304 306 306 306 307 307 306 306 307 307 308 309 308 309 309 308 309 310 311 311 310 311 313 313 313 313 312 312 313 313 314 314 314 315 318 334 341 336 334 334 335 337 337 337 337 337 337 337 337 337 337 338
300 301 301 301 301 301 301 301 301 301 301 299 299 299 299 299 299 299 299 299 299 299 299 299 300 300 300 300 299 299 300 300 300 301 302 303 303 305 307 307 307 307 306 305 306 307 308 309 308 308 309 309 310 311 311 311 310 310 311 312 312 312 312 313 313 314 314 315 314 315 323 338 339 336 334 333 334 336 336 337 337 337 337 337 337 337 337 337
301 302 301 301 301 301 301 301 301 300 300 299 299 299 298 299 299 299 299 299 300 299 299 299 299 300 300 299 299 299 301 301 301 301 302 303 303 305 307 307 306 306 305 305 306 307 308 309 309 309 311 311 311 311 311 311 311 310 310 311 312 312 313 313 314 314 313 314 315 315 324 338 338 337 334 332 334 334 335 337 337 337 336 336 336 336 336 337
301 301 301 301 301 301 301 301 300 299 298 298 299 298 298 299 299 299 299 300 300 300 299 300 300 300 299 299 299 300 301 301 301 302 302 303 305 306 307 306 306 306 305 305 306 307 308 308 309 310 312 312 311 311 310 311 311 310 310 312 314 313 312 313 313 314 313 316 318 320 332 340 337 336 335 333 333 333 334 335 336 337 336 335 335 336 336 337
299 300 300 300 300 301 300 300 299 298 298 298 299 299 299 299 299 299 299 300 300 300 299 299 299 300 300 299 300 300 301 301 301 302 302 303 305 306 307 306 306 306 305 305 305 306 308 308 309 310 312 312 311 310 310 311 311 310 310 311 314 312 311 314 315 314 313 318 325 331 341 343 338 336 337 334 333 333 333 334 334 335 335 335 335 335 336 337
299 299 300 300 300 300 300 299 299 298 298 299 299 299 299 299 299 299 299 299 300 299 299 300 300 300 300 300 300 300 300 301 301 301 302 303 305 306 307 306 306 306 306 305 305 306 306 307 308 310 311 311 310 310 310 311 311 311 310 311 312 313 313 314 314 314 312 314 324 329 332 339 338 336 337 335 334 334 333 333 334 334 334 334 335 335 334 336
299 300 300 300 300 300 299 299 299 299 299 299 299 299 299 299 299 299 299 299 299 299 299 300 300 300 300 300 300 300 301 301 300 301 302 303 304 306 306 305 306 306 306 305 305 306 306 307 308 310 311 311 310 309 309 310 311 311 311 311 312 313 313 313 312 314 314 313 319 320 322 336 340 336 336 335 336 336 333 333 334 333 334 334 334 335 334 335
299 300 300 300 300 300 300 299 299 299 299 299 298 299 299 299 299 299 299 299 300 300 300 301 301 300 300 301 300 300 301 302 300 300 301 302 303 305 305 305 305 305 306 306 306 307 306 307 308 310 310 311 311 309 309 310 310 311 313 311 312 312 312 313 311 313 317 315 317 321 325 338 342 337 337 337 337 337 335 334 334 333 334 334 334 335 334 335
300 300 301 300 299 300 300 300 299 300 299 298 298 298 299 299 299 299 299 298 300 302 302 303 301 300 302 302 301 300 301 301 302 301 300 302 303 304 305 304 304 304 305 306 306 307 307 307 308 309 310 310 311 310 309 309 310 311 313 312 312 312 312 313 312 313 316 314 317 325 328 336 342 338 336 337 338 339 338 335 333 334 334 334 335 335 335 335
301 301 301 300 299 299 300 300 299 300 299 298 298 298 298 299 299 299 299 299 301 303 303 303 302 301 303 302 301 300 300 301 303 303 302 302 303 304 305 304 304 305 305 305 307 308 307 307 308 309 310 310 310 310 309 309 310 311 312 312 311 311 312 312 312 312 313 313 315 323 327 333 342 341 335 336 340 339 338 335 333 333 334 334 336 335 335 336
301 302 301 300 300 300 300 300 300 300 299 298 299 299 299 299 299 299 299 299 301 302 303 303 302 302 303 303 301 300 300 301 302 303 303 303 304 304 305 305 304 305 305 305 306 307 308 308 308 309 310 310 310 310 309 309 310 310 311 310 310 313 314 313 314 312 312 315 316 318 327 330 334 339 335 335 339 339 337 336 334 334 334 334 336 336 336 336
302 302 301 301 300 300 301 301 301 301 300 299 299 300 299 299 299 299 299 300 301 302 303 303 302 302 303 303 303 302 300 301 302 303 304 304 304 304 305 306 305 304 306 306 306 306 307 309 309 308 309 310 310 310 308 308 310 311 311 310 312 315 314 311 313 312 312 318 319 317 326 328 326 335 337 333 335 336 336 337 335 334 334 335 336 336 336 336
302 302 301 301 301 301 301 301 301 301 300 300 300 300 300 300 299 298 300 301 302 303 304 303 302 302 303 303 304 303 301 301 302 302 304 304 304 304 305 306 306 306 306 306 306 307 307 308 309 309 309 309 310 310 309 309 309 310 310 312 312 312 313 311 313 315 314 318 321 318 325 330 327 333 337 333 333 335 335 335 334 334 335 335 336 336 337 337
302 302 302 301 301 302 302 302 302 301 301 301 300 300 300 300 300 300 300 302 303 303 303 303 303 303 303 303 303 304 303 303 302 302 303 305 305 304 304 306 307 307 308 307 307 307 307 307 308 309 310 309 309 309 309 309 308 308 309 310 311 312 312 312 313 315 316 318 319 318 324 330 327 329 333 333 333 333 334 334 333 334 335 336 337 337 337 338
303 303 302 302 302 302 302 302 302 301 301 301 300 301 301 301 302 302 303 303 303 303 303 303 304 303 304 304 303 304 304 303 303 303 303 304 305 305 305 305 305 307 311 309 307 308 309 309 310 309 309 309 310 309 309 310 309 308 309 310 312 314 315 315 315 315 316 318 316 315 324 328 324 328 332 330 331 332 333 334 334 335 335 336 337 337 338 338
303 303 302 303 303 302 302 302 302 301 301 301 301 301 302 303 303 304 304 303 303 303 303 303 304 304 305 304 304 305 306 305 304 303 304 304 305 306 305 305 305 306 308 309 308 308 308 310 311 309 310 309 309 309 309 310 310 308 309 310 311 315 318 317 319 323 321 317 315 317 326 328 325 331 333 332 334 335 334 335 334 335 336 336 337 337 338 338
303 303 303 303 303 303 302 302 302 302 301 301 301 302 303 303 304 304 304 304 304 304 304 304 304 305 305 305 305 306 306 306 304 303 304 305 305 306 305 306 306 305 308 311 312 310 308 311 312 309 310 309 309 310 309 310 312 310 309 310 310 313 317 315 316 321 319 315 318 321 326 329 329 333 335 335 338 339 337 335 335 336 336 337 337 338 338 338
303 303 304 304 303 303 303 303 303 302 301 301 302 303 303 303 304 304 304 304 304 303 304 305 305 305 306 306 307 306 306 306 304 304 306 306 306 307 305 306 307 305 307 311 312 312 311 314 314 310 309 310 309 310 309 309 312 310 308 311 311 310 316 321 321 320 317 318 322 322 325 331 330 331 335 338 339 339 338 336 335 335 337 337 337 338 338 338
303 304 304 304 303 303 303 303 303 302 301 302 303 303 304 304 304 304 303 304 304 304 304 305 305 305 307 309 308 307 307 307 306 304 306 307 307 307 305 306 307 306 306 306 309 313 312 312 314 311 310 310 309 310 311 309 309 311 310 311 312 314 316 319 321 322 318 317 318 317 322 328 329 333 337 338 339 339 337 336 336 336 337 337 337 337 338 338
303 304 304 304 303 303 303 303 302 301 301 303 303 304 305 305 305 305 304 304 304 304 305 305 305 305 308 309 308 307 308 308 306 305 306 306 308 308 306 306 307 306 306 305 308 312 313 313 313 311 310 310 309 309 310 310 309 310 311 310 312 318 319 315 318 322 319 319 321 319 319 325 330 335 337 337 338 338 337 337 337 336 337 337 337 337 337 338
302 304 304 304 303 304 303 303 302 301 302 303 303 304 304 305 305 305 305 305 304 305 305 305 306 306 307 307 308 309 309 309 307 307 307 306 307 308 306 306 307 307 307 306 307 310 311 314 315 312 310 309 310 310 310 310 310 309 310 311 310 312 315 316 317 318 317 323 328 322 320 328 333 332 334 336 336 336 337 337 336 335 337 338 337 337 337 337
302 304 304 304 304 304 303 303 303 302 303 304 304 304 304 304 305 305 306 306 305 305 305 304 306 307 305 306 309 308 309 311 309 307 307 306 306 308 307 307 307 307 307 307 308 309 310 316 320 315 310 309 310 311 310 310 310 310 312 314 312 311 315 316 315 315 318 323 327 324 323 331 333 330 332 335 335 336 337 336 336 336 336 338 338 337 337 337
301 303 304 303 304 304 303 303 304 303 304 305 305 305 305 304 304 304 306 306 305 305 304 304 306 306 304 305 309 309 310 313 311 308 308 306 306 308 308 307 307 307 308 307 308 309 311 315 318 315 312 312 311 311 312 312 311 311 312 313 312 313 317 320 321 321 318 317 321 322 322 330 336 332 331 334 333 334 335 334 335 335 336 338 337 337 337 337
300 302 303 303 304 304 303 303 304 303 304 304 304 305 305 304 303 305 306 306 307 307 306 306 307 307 306 306 310 312 312 314 313 311 310 308 306 307 306 307 308 307 308 308 308 310 311 313 313 313 313 313 312 311 311 311 311 312 312 312 311 313 318 327 334 330 320 316 320 316 316 330 339 332 331 333 332 333 334 333 334 335 336 338 337 337 337 337
300 301 302 301 302 303 303 303 302 303 303 303 303 305 306 305 304 306 306 306 307 307 307 307 306 307 309 308 311 313 312 314 314 311 310 310 309 308 306 307 308 307 308 310 312 311 312 315 315 314 314 313 312 311 310 310 312 317 317 313 312 316 318 320 326 325 318 318 323 319 318 329 334 329 332 336 336 336 334 332 334 335 336 337 337 337 337 336
301 301 301 300 301 303 303 302 301 302 302 303 303 305 307 307 307 308 307 306 308 307 307 307 306 307 309 308 310 312 312 313 313 311 312 313 313 309 306 306 308 308 308 310 312 312 313 317 319 317 315 315 316 316 316 314 313 316 317 313 313 315 316 316 320 322 318 316 321 325 327 331 331 330 335 340 339 338 334 332 334 335 336 337 337 337 336 336
301 301 301 300 301 302 301 301 301 302 302 302 303 306 307 307 308 308 307 307 308 307 307 308 308 308 309 309 311 313 313 312 311 313 315 316 316 312 308 307 307 307 309 311 312 313 315 319 323 322 317 319 322 320 318 316 314 313 313 313 314 315 318 321 321 321 321 318 321 330 336 338 335 332 336 338 337 338 335 333 334 335 337 338 337 337 336 336
300 300 300 300 301 301 301 301 301 301 301 302 305 306 306 307 307 308 308 309 308 306 308 310 309 310 312 312 313 314 314 314 313 314 316 317 316 315 311 308 307 307 310 312 311 314 317 316 319 322 318 317 320 316 313 314 314 315 315 314 317 318 319 321 322 325 324 318 321 329 334 341 339 332 335 337 334 335 334 333 334 335 337 337 336 337 336 335
300 300 300 300 300 301 301 301 301 301 301 303 305 306 306 306 307 308 308 308 307 307 309 311 310 309 311 313 314 315 315 316 315 315 316 317 315 317 316 309 307 309 311 313 313 317 321 318 315 319 318 316 316 312 312 316 315 317 320 318 319 322 318 319 327 331 323 318 328 332 332 340 340 331 332 334 332 333 332 332 334 335 336 337 336 336 335 335
299 299 299 299 299 300 300 300 301 301 301 303 305 305 305 305 306 307 307 308 308 307 308 310 309 309 310 312 314 315 315 315 315 315 316 316 315 319 321 312 310 311 310 311 314 317 321 318 316 322 322 318 319 315 312 315 314 314 320 321 324 325 322 324 331 329 321 322 333 334 333 338 338 332 333 332 330 331 331 332 334 335 336 336 335 336 335 335
298 298 299 299 299 300 300 300 301 301 301 304 305 305 304 305 306 306 306 308 309 308 308 309 309 309 309 310 312 314 314 313 314 315 315 316 316 318 320 316 315 318 315 312 314 316 318 315 317 331 329 317 320 321 314 315 316 314 317 323 326 323 319 321 325 325 328 331 331 332 336 337 335 333 334 331 329 331 331 332 334 334 336 336 335 335 335 334
298 298 299 299 299 301 301 301 301 301 303 304 304 304 304 305 305 305 307 308 308 308 309 309 309 309 309 310 311 313 312 311 312 312 312 314 315 316 318 316 316 321 322 316 315 317 320 319 323 336 331 315 319 324 318 318 320 315 315 321 325 322 318 318 321 327 337 339 334 334 339 341 337 334 333 330 329 331 330 331 333 334 335 336 335 335 335 334
298 298 299 299 300 301 301 301 301 302 304 304 303 304 304 304 305 305 307 308 308 308 309 309 310 310 310 311 312 312 311 310 311 312 311 312 312 312 314 314 312 316 319 318 317 318 322 324 324 330 326 315 316 322 320 319 318 314 318 324 324 322 320 317 318 325 334 338 339 340 339 340 335 333 335 335 333 332 331 330 333 334 334 335 335 335 335 334
Wind_Speed
16 16 17 16 17 17 17 18 18 18 18 18 19 19 19 16 14 14 15 14 15 16 17 18 19 19 20 20 22 23 25 25 25 24 22 18 14 14 17 17 16 15 17 19 17 17 19 22 22 20 19 17 15 16 18 17 14 12 4 5 8 5 6 7 8 7 5 5 6 12 18 8 6 16 18 15 8 6 9 6 6 7 2 6 13 20 32 33
17 18 18 17 17 16 17 17 17 18 19 19 19 20 20 19 17 16 16 15 15 15 16 17 18 19 19 19 20 22 24 24 27 26 15 6 3 7 14 19 20 19 20 22 18 16 17 18 18 16 16 14 11 14 15 16 17 11 3 5 10 5 7 9 10 9 8 8 9 14 16 7 7 11 11 9 1 5 7 6 9 13 13 16 20 29 35 34
18 18 18 18 18 18 18 18 17 17 18 18 18 19 19 19 19 18 17 17 15 15 16 16 17 19 18 18 19 20 22 24 28 21 4 3 2 5 13 18 21 22 22 23 19 16 16 14 14 13 12 12 12 15 14 14 15 11 5 6 8 5 6 10 12 14 16 13 11 13 8 4 11 10 9 8 5 2 6 6 11 19 25 28 31 35 35 34
19 19 19 19 19 19 19 19 19 18 17 17 17 18 18 19 20 20 19 17 16 16 16 15 16 18 18 18 18 18 20 22 22 11 10 5 2 4 8 15 21 24 23 23 19 16 15 12 12 11 10 9 13 15 12 15 13 8 9 6 4 8 5 11 16 19 21 16 12 10 3 5 12 13 13 9 5 4 7 11 14 24 33 35 35 36 35 35
20 20 20 19 19 19 20 20 20 20 19 18 17 17 18 18 19 20 20 19 17 17 17 16 17 16 17 18 17 16 14 12 5 14 13 4 4 4 2 8 17 23 24 22 19 18 16 12 10 9 7 5 10 11 9 19 15 4 11 8 4 9 6 12 20 20 21 17 13 9 3 6 10 12 13 6 4 5 6 8 16 31 39 40 40 39 38 37
20 21 21 21 21 20 20 20 20 20 20 19 18 17 17 17 19 20 20 20 18 17 17 17 17 16 16 16 16 13 7 5 7 16 11 4 4 5 6 3 11 19 23 21 19 20 16 13 11 8 6 3 8 8 7 20 20 6 8 10 9 11 7 11 18 21 22 17 14 9 4 6 7 8 8 2 3 7 7 5 23 36 39 41 43 41 40 39
21 21 21 21 21 21 21 21 21 21 21 20 19 19 18 17 18 18 19 19 19 18 16 17 17 15 16 15 15 11 12 19 12 13 8 3 7 7 7 5 8 11 19 21 21 21 17 14 13 10 6 4 6 8 9 16 19 12 5 5 11 15 12 12 15 19 23 21 19 13 6 6 5 5 4 4 3 1 4 15 31 38 38 41 42 41 40 39
21 21 21 21 21 21 22 22 22 22 22 21 20 20 19 19 18 18 18 18 19 18 17 16 15 15 16 15 15 12 20 27 16 12 12 14 14 10 6 3 6 3 11 17 20 20 18 14 14 12 5 5 5 5 12 12 12 12 8 4 7 13 17 19 18 17 20 23 21 13 8 11 13 10 4 6 8 11 17 26 35 38 39 40 41 41 41 40
21 20 20 20 20 21 21 22 23 23 22 22 22 21 21 21 20 20 19 18 18 18 17 16 15 14 14 15 14 14 26 29 18 17 20 19 19 14 9 3 3 1 6 12 17 19 18 14 16 15 5 8 9 5 9 10 7 8 10 10 8 9 15 19 20 21 20 18 15 9 7 11 17 13 3 8 15 20 26 33 38 40 40 40 41 42 41 41
21 20 20 20 21 21 22 22 22 22 21 21 22 23 23 22 22 21 20 19 17 17 17 15 15 13 13 16 12 13 27 29 19 17 16 16 17 13 10 7 6 4 5 9 14 18 19 17 18 18 9 7 9 7 7 8 5 6 12 15 15 14 14 14 15 21 21 17 14 9 6 11 16 10 1 9 18 25 30 35 38 39 39 40 40 41 41 40
21 20 21 21 21 22 23 23 23 22 21 20 22 23 24 24 22 22 21 21 19 17 16 15 14 14 15 15 13 17 24 21 17 17 16 17 17 13 11 10 9 7 7 9 12 15 18 19 18 15 9 7 5 6 9 8 7 10 11 12 15 16 17 16 12 14 13 12 17 15 8 11 12 6 7 18 24 27 33 35 36 37 38 39 39 39 39 39
21 21 21 21 22 23 24 24 24 24 22 22 23 23 24 24 24 24 24 23 21 18 16 14 13 15 16 18 26 28 23 17 17 19 19 19 18 15 13 13 13 11 10 11 12 14 14 18 19 15 10 6 4 2 6 7 7 11 9 6 8 10 15 17 13 13 9 6 14 15 6 8 8 3 15 29 28 27 33 35 34 35 36 37 38 37 37 36
22 23 23 23 23 24 25 25 26 25 25 25 24 24 24 25 25 25 25 24 23 18 15 14 13 16 16 21 33 31 28 26 26 27 22 19 20 19 18 17 16 13 13 13 12 12 11 14 19 22 17 6 2 3 5 7 4 6 6 4 4 6 10 15 14 13 10 8 12 12 4 7 7 3 22 32 30 30 31 32 33 33 35 37 37 37 36 35
24 24 25 25 25 26 26 26 27 26 27 27 26 26 26 26 25 25 25 24 23 19 15 13 13 16 15 25 34 28 26 25 25 28 23 20 24 22 19 18 18 15 14 14 12 10 9 9 15 23 22 14 7 7 7 6 2 1 4 4 4 5 4 8 12 10 8 10 16 14 4 8 5 6 25 30 31 34 30 29 32 33 35 37 37 37 36 35
25 26 26 26 27 27 26 26 27 27 27 28 27 28 28 28 26 25 23 22 22 17 13 12 13 15 16 28 33 20 14 14 14 17 16 18 23 21 18 17 18 17 15 16 13 9 8 8 14 19 15 14 12 7 5 3 2 2 5 5 6 5 2 4 9 12 10 8 15 14 4 6 4 8 24 26 28 31 29 28 31 32 33 35 35 37 36 34
26 27 27 27 27 27 27 28 28 28 28 28 28 28 28 28 27 25 22 21 21 14 11 11 14 12 11 18 18 10 8 11 11 11 9 11 14 16 15 14 16 16 16 15 12 9 8 9 15 18 11 8 8 3 1 2 3 2 5 5 5 6 3 4 5 10 14 7 8 11 5 4 3 10 21 23 24 26 27 26 28 31 32 34 36 36 36 35
26 27 27 27 26 26 27 28 28 28 28 28 29 28 29 29 26 22 20 19 17 11 11 10 10 9 14 16 15 15 14 12 13 13 10 9 9 11 12 13 14 15 16 15 13 11 10 11 11 12 11 6 4 5 4 6 6 3 2 3 3 6 6 4 5 5 13 10 7 8 6 4 3 12 20 21 22 23 26 25 26 30 31 33 35 36 36 35
26 27 27 26 26 27 28 27 27 27 27 27 27 29 30 26 19 16 14 12 10 7 8 10 7 5 13 17 15 17 15 14 19 18 12 9 9 9 9 11 12 12 14 12 14 14 10 11 8 5 6 7 5 8 8 7 6 3 4 4 2 5 7 8 5 4 10 11 9 7 7 5 2 10 17 20 22 22 25 28 27 29 29 31 32 34 35 35
27 27 26 25 25 27 28 27 27 27 27 26 26 28 25 17 12 8 5 3 6 6 3 9 14 8 7 11 13 16 19 21 24 20 13 8 8 9 8 10 11 11 8 4 9 13 10 6 6 6 7 10 9 9 8 3 7 7 6 5 4 5 5 7 6 6 9 8 8 8 8 6 5 8 12 15 18 16 19 23 23 24 26 28 29 31 32 32
26 26 25 25 25 27 28 27 27 27 26 26 26 24 17 12 9 4 5 8 10 11 10 11 19 21 19 23 25 24 24 23 21 19 14 7 4 7 10 12 10 9 6 3 5 11 12 5 7 9 8 10 10 9 7 4 4 7 5 5 6 5 4 5 6 7 7 7 7 8 9 8 8 10 10 14 16 11 14 17 18 21 23 27 29 29 30 30
25 25 25 26 25 26 27 27 27 26 25 24 21 16 12 11 7 5 11 17 18 17 19 20 20 26 29 32 34 28 22 20 21 19 14 11 8 5 9 11 7 5 6 4 2 5 11 8 8 8 5 8 9 8 8 8 5 4 4 4 4 5 4 6 6 6 5 6 5 7 9 7 7 8 7 11 13 10 17 21 20 21 22 25 27 27 28 27
25 24 26 27 26 26 26 27 26 24 22 17 14 13 14 12 9 12 13 13 20 20 21 24 24 29 32 34 35 27 17 15 20 19 11 9 10 9 10 10 6 4 5 4 3 3 7 8 7 6 4 6 7 8 9 10 8 3 3 3 3 4 3 5 5 3 3 5 4 6 9 4 2 5 4 7 7 8 17 21 23 27 25 26 28 29 29 28
24 24 26 27 26 25 25 26 24 20 16 12 14 15 12 10 11 16 14 10 18 21 21 24 25 30 32 32 31 22 15 11 14 19 12 7 10 14 12 8 7 5 6 7 6 5 5 5 7 7 6 7 7 8 10 8 6 4 4 4 3 3 3 3 4 0 3 3 3 7 6 1 3 5 4 4 4 7 11 13 17 24 25 27 30 31 33 33
23 24 26 26 25 23 22 23 19 15 13 13 14 11 8 10 12 15 13 8 10 14 19 21 21 26 27 26 21 15 19 16 15 19 13 9 12 14 11 8 8 6 7 8 8 6 4 3 9 9 7 8 7 8 11 8 5 4 4 5 3 3 3 3 4 2 3 2 4 8 4 3 2 4 3 2 3 8 11 10 14 18 19 21 24 27 32 36
24 25 26 25 24 21 20 18 13 12 13 11 9 8 8 11 12 12 10 5 6 8 11 10 12 16 16 15 13 13 14 15 21 21 11 9 12 11 8 9 9 8 9 8 6 5 6 5 12 12 9 9 7 7 10 8 5 4 4 6 6 5 4 3 2 3 4 1 2 6 3 3 1 3 4 3 2 6 9 10 14 16 17 21 23 27 31 34
25 25 25 24 21 19 18 14 11 12 12 8 8 9 9 9 11 11 6 3 5 4 3 2 4 4 4 6 12 11 5 11 25 26 15 12 12 9 7 8 7 8 8 7 3 3 5 8 10 12 11 10 7 6 9 9 6 3 5 8 7 5 4 3 1 3 5 4 4 3 5 3 1 2 6 5 4 6 7 9 13 16 18 23 26 29 30 30
25 25 23 21 18 16 15 13 11 11 9 7 8 8 6 7 9 8 3 3 3 2 3 3 3 1 5 5 11 12 2 7 16 22 21 17 13 9 6 4 5 6 6 6 4 3 8 10 10 12 12 10 9 6 7 10 7 3 6 9 9 6 6 5 3 3 3 2 4 1 5 2 2 4 6 7 6 6 7 8 12 16 19 23 25 26 28 29
25 23 20 19 15 12 13 13 12 10 8 7 7 5 5 6 7 4 2 2 1 1 2 3 4 5 7 5 15 18 8 5 2 15 25 21 14 9 4 4 5 6 8 8 5 4 9 12 10 13 12 8 8 5 7 10 7 4 6 9 9 8 6 5 3 2 1 1 4 2 5 3 4 4 4 7 8 8 10 12 12 16 21 23 24 25 27 30
25 22 17 16 15 10 10 12 11 9 7 6 5 5 4 5 4 2 1 1 1 1 2 1 4 5 6 3 17 20 14 6 3 8 21 19 15 10 2 5 6 6 10 9 5 3 7 13 11 11 10 6 6 5 7 11 6 4 6 6 4 4 5 5 4 2 1 0 4 5 5 3 3 4 4 6 7 9 10 11 11 15 22 24 25 27 28 30
24 21 15 14 15 11 10 12 11 9 7 5 4 4 4 2 1 1 1 1 1 1 2 2 3 2 3 1 9 13 10 7 7 3 16 16 15 13 6 7 6 5 7 7 7 6 4 13 13 8 7 7 7 5 7 10 8 5 5 3 3 2 1 2 2 3 2 4 6 7 7 5 2 5 5 7 10 13 11 9 11 15 21 25 26 29 31 31
24 20 13 12 13 12 12 12 10 9 7 5 4 4 3 1 2 1 2 1 1 1 1 2 2 2 2 2 3 7 6 6 7 4 8 11 10 10 5 5 4 4 5 5 7 9 5 9 9 6 10 10 8 5 6 9 9 7 4 4 2 2 2 3 3 2 4 6 6 6 7 7 5 6 5 10 13 15 13 12 14 16 21 26 28 31 33 33
23 19 13 11 12 12 12 10 9 10 8 6 5 3 1 1 1 3 3 2 2 2 0 1 2 2 0 1 2 4 4 4 4 5 5 7 7 6 6 5 3 5 5 6 7 7 5 4 4 7 13 14 9 5 5 6 7 7 5 6 4 2 1 2 2 2 4 5 4 6 8 5 6 6 7 14 15 13 14 17 20 22 25 28 29 32 33 33
22 18 12 10 11 12 10 8 8 9 8 6 4 2 1 1 2 4 3 1 1 2 1 2 4 4 3 2 2 3 3 2 4 5 6 6 7 5 6 6 3 4 5 6 6 5 3 3 4 7 10 14 13 8 7 7 8 8 7 7 6 4 4 5 3 1 2 4 3 5 8 3 4 4 9 17 19 17 18 21 23 23 25 26 26 29 31 32
22 17 12 9 9 9 7 7 7 8 8 5 2 1 2 3 4 3 3 3 3 2 2 4 4 5 4 3 2 2 4 3 4 5 5 5 6 5 5 6 6 2 3 6 4 5 5 3 6 7 6 13 15 10 7 6 6 7 4 6 5 4 5 4 3 3 3 3 2 2 5 4 3 4 8 14 16 14 13 14 17 18 21 24 23 26 29 31
22 14 10 8 5 5 5 6 7 7 7 3 1 2 3 3 3 2 3 3 2 3 5 5 3 1 2 3 3 2 2 2 5 5 3 5 6 6 5 5 7 4 3 6 4 3 5 4 6 7 6 13 14 9 7 7 5 5 4 6 5 5 5 2 3 6 5 2 2 2 3 4 4 4 6 5 10 9 10 14 18 19 21 25 25 26 29 31
20 10 6 5 2 3 5 7 7 8 6 3 1 3 4 3 2 1 2 3 2 3 6 5 1 2 1 1 2 3 3 2 5 5 3 4 5 6 5 3 5 5 4 5 3 3 5 3 4 9 7 11 15 10 8 8 5 4 4 5 5 5 5 3 2 1 4 4 4 2 2 2 0 4 6 6 11 9 10 13 17 21 24 25 26 29 29 32
20 10 3 2 3 5 7 7 7 7 6 3 3 4 3 3 3 2 3 5 4 2 3 3 1 2 2 1 1 4 4 1 5 5 2 3 4 4 5 3 5 7 5 4 2 3 6 2 5 10 9 11 18 16 9 7 7 5 6 6 3 3 2 2 2 2 4 4 4 1 4 2 2 2 3 5 9 9 10 11 13 19 25 25 27 31 30 32
19 9 3 4 5 7 8 7 6 7 6 3 5 6 3 2 3 3 5 6 4 1 1 1 1 1 1 2 2 3 2 1 4 5 2 2 3 4 7 4 5 9 8 5 2 2 4 2 4 9 10 8 13 15 7 7 7 6 6 6 4 4 2 1 3 1 2 3 3 0 2 3 4 4 3 7 11 10 11 12 13 17 22 24 27 31 29 29
14 5 4 7 8 8 8 7 6 7 5 2 4 4 2 3 5 7 10 8 3 1 1 2 1 2 2 2 3 1 3 3 3 3 2 3 2 4 8 6 6 9 8 7 4 3 1 4 2 7 11 7 6 8 8 8 7 3 5 6 3 3 4 3 3 3 3 3 3 0 1 2 5 6 10 14 15 15 14 14 14 17 22 25 27 31 31 29
11 3 5 11 11 8 7 7 6 5 4 3 4 3 3 5 7 12 14 7 2 1 1 2 3 2 2 2 2 1 3 2 2 2 2 4 3 3 7 8 5 7 8 7 5 3 2 2 2 3 6 8 5 7 9 10 8 5 5 6 4 2 2 3 1 2 3 3 3 2 0 5 5 5 11 15 15 16 18 16 14 16 23 27 28 32 33 32
11 3 5 13 11 6 6 7 4 3 3 3 3 3 5 6 7 12 13 4 3 2 1 2 3 1 1 0 1 2 2 2 2 2 1 4 4 1 6 11 6 4 7 5 4 4 1 1 2 2 4 7 6 6 8 10 9 7 5 5 6 5 3 3 2 2 2 3 4 5 2 6 6 4 10 13 13 15 19 17 14 19 27 29 30 34 35 34
9 1 6 14 11 6 6 5 3 3 3 4 8 8 7 7 6 8 8 3 2 3 2 2 3 2 2 2 2 3 2 1 1 2 2 5 6 4 6 12 11 6 7 6 4 5 4 1 1 2 4 5 5 5 10 11 9 7 5 4 6 6 5 6 5 3 1 2 2 4 3 5 6 4 5 6 6 9 14 16 16 21 29 30 31 34 34 34
8 4 6 14 10 5 5 3 3 3 3 8 14 11 7 4 4 6 5 3 2 1 1 2 2 2 3 3 2 1 1 0 1 2 2 3 6 10 9 14 15 8 5 4 4 4 4 1 0 1 2 1 1 4 7 7 7 6 4 3 6 7 5 5 5 4 3 3 2 4 2 5 6 3 0 2 3 4 7 11 14 19 25 28 31 34 34 33
10 7 6 13 7 2 3 2 3 6 6 11 13 9 4 3 4 5 5 4 4 3 2 2 2 3 3 2 1 2 2 1 1 3 2 1 3 11 13 17 17 8 3 5 4 4 3 2 2 3 4 3 3 5 5 3 4 4 3 3 6 8 7 4 2 3 3 4 5 5 4 7 6 4 3 5 6 7 7 12 17 19 21 25 28 31 34 33
10 5 8 15 7 4 3 4 2 5 8 11 11 9 7 3 4 6 6 5 4 3 3 3 4 4 2 1 1 3 1 2 1 4 4 4 3 5 11 18 19 11 8 9 4 2 2 2 3 5 5 6 5 6 6 5 4 2 3 5 5 7 9 6 2 3 2 3 4 5 4 6 5 3 5 6 7 8 8 15 22 23 25 28 28 31 33 32
7 2 7 14 8 4 7 8 4 4 7 8 7 8 9 8 8 6 4 3 5 6 3 3 3 3 2 1 2 3 4 2 2 3 3 4 4 1 5 13 17 12 10 12 11 3 1 1 4 5 7 7 6 6 5 5 6 3 3 6 5 5 7 6 5 3 4 3 2 4 5 3 3 1 6 6 7 9 9 14 20 23 27 30 29 31 33 32
5 2 4 8 6 4 8 9 8 6 8 9 5 5 10 11 9 6 2 2 7 8 4 2 4 4 3 4 3 3 5 2 2 2 4 4 3 4 4 6 11 11 10 9 9 4 2 2 4 6 7 8 6 6 6 7 8 6 6 5 5 6 6 7 5 5 5 6 1 7 5 6 6 7 9 9 9 9 8 12 20 26 29 31 30 31 33 32
6 3 4 7 5 3 4 9 12 10 11 11 5 5 11 12 10 8 4 2 6 7 4 3 6 8 8 6 3 2 4 4 3 3 4 4 4 5 4 4 4 7 8 5 3 2 3 1 2 4 4 4 4 7 8 8 7 7 8 7 7 8 8 7 6 6 6 6 5 7 8 8 8 9 10 10 9 11 13 18 24 27 29 31 31 32 33 32
7 3 6 9 6 6 8 13 15 10 9 9 5 5 10 12 11 9 4 3 4 4 3 3 7 10 10 7 3 3 3 3 2 3 2 3 4 4 3 4 1 4 6 4 4 2 4 1 2 3 4 3 3 5 8 8 7 5 5 7 8 8 7 5 5 5 5 4 4 7 8 6 6 6 6 3 4 10 15 19 23 26 29 31 32 33 35 35
9 6 9 11 8 9 11 12 11 7 6 7 5 6 9 10 12 11 7 5 5 4 4 5 9 10 9 7 3 2 0 1 2 3 2 3 3 2 2 1 2 3 1 2 4 1 3 0 3 3 5 5 6 5 7 8 8 6 3 4 7 7 4 3 4 5 4 4 3 6 5 4 5 3 3 5 10 14 14 17 21 24 28 30 29 31 34 35
12 11 11 9 7 7 8 7 6 4 4 5 5 7 9 9 12 13 8 5 5 6 5 6 10 9 7 7 4 1 1 3 6 8 7 5 4 3 1 1 2 4 4 2 3 2 3 1 2 4 5 3 6 5 7 7 9 8 5 3 7 6 3 2 3 5 5 6 7 7 3 4 4 3 6 7 11 13 12 15 20 22 26 29 29 29 32 35
16 15 13 8 5 4 5 6 6 4 3 5 7 10 9 11 13 12 6 2 4 9 8 5 7 6 5 6 4 4 8 11 15 18 16 13 12 11 10 8 6 3 2 2 2 1 2 2 2 3 4 3 5 2 7 8 8 3 2 4 6 4 3 2 2 3 6 8 7 4 4 5 3 5 6 5 6 8 12 20 25 26 27 28 28 30 33 36
Wind_Direction
348 346 345 343 341 338 336 335 333 334 333 330 330 331 328 318 301 298 303 299 293 295 296 295 295 296 297 297 300 303 305 306 307 305 300 292 284 271 260 249 240 226 218 222 219 213 213 215 215 213 210 207 216 217 209 207 196 193 190 212 220 198 195 178 179 189 162 210 237 246 247 226 255 279 289 291 261 185 154 137 140 162 185 167 177 177 171 171
352 348 346 343 340 337 335 334 332 331 330 329 330 329 329 326 315 302 297 292 289 294 297 296 295 296 296 298 300 303 305 305 305 302 300 298 265 233 237 236 232 223 215 217 218 214 212 211 210 208 209 207 212 209 206 206 199 200 156 197 220 194 182 179 178 181 173 206 225 241 242 215 243 277 301 306 271 150 138 104 117 121 113 134 154 161 165 167
351 349 346 342 340 337 335 332 330 329 327 328 327 327 326 324 323 316 306 295 287 288 293 296 298 296 294 297 299 302 306 308 305 295 245 148 143 185 222 227 222 215 212 214 211 213 212 206 206 203 204 211 210 202 200 198 201 213 198 214 226 180 187 194 184 193 199 207 220 238 243 238 266 290 314 300 295 206 173 146 122 124 126 135 146 153 157 157
346 344 342 341 339 337 335 333 331 329 326 325 323 324 322 320 321 320 317 308 294 285 285 291 296 296 295 296 297 302 308 313 303 257 170 156 168 166 215 221 217 210 207 211 207 207 209 205 208 200 197 213 215 209 205 196 192 205 206 218 205 165 198 212 199 206 210 211 223 235 250 279 281 296 301 295 291 269 213 200 170 146 139 137 142 148 153 154
340 339 338 338 337 335 333 333 332 330 328 324 320 318 318 320 317 316 319 317 307 292 282 283 289 294 295 294 295 301 313 324 280 178 160 123 135 126 143 205 208 205 205 209 206 204 205 208 211 203 200 209 212 215 218 206 198 208 220 221 189 170 192 220 210 213 218 222 238 246 259 276 288 293 286 278 246 262 277 235 171 149 143 144 149 152 156 158
339 338 337 337 336 334 331 331 329 329 328 325 322 318 316 316 314 314 314 315 315 304 290 281 282 290 293 293 294 294 289 267 179 163 163 99 70 47 43 120 173 194 206 208 208 205 204 210 211 202 191 198 218 219 215 210 209 233 237 220 215 201 198 221 215 219 225 228 239 245 251 261 286 293 275 274 273 280 296 200 151 146 148 152 155 158 160 161
338 337 336 336 335 332 329 328 327 325 326 325 323 321 318 314 311 310 309 311 311 309 304 289 282 284 289 292 291 281 251 248 220 172 191 302 330 346 8 49 118 178 204 208 211 207 206 207 204 197 184 204 226 225 224 220 221 231 249 217 218 219 220 227 220 221 225 229 237 240 252 257 254 278 302 43 50 178 164 151 147 147 151 154 155 157 159 162
336 335 334 335 334 332 329 326 324 322 322 322 321 319 316 313 308 305 305 306 305 307 308 302 292 281 285 292 293 280 252 249 233 207 248 284 286 298 320 30 78 151 201 212 217 211 212 208 199 195 189 223 218 218 223 230 237 232 237 251 227 225 229 235 236 232 225 229 238 238 243 246 248 267 335 86 118 133 141 143 145 147 149 153 156 159 161 164
338 337 335 335 334 334 333 330 326 321 319 319 318 315 314 313 308 304 301 299 300 301 302 307 303 285 280 284 291 278 254 254 259 257 268 273 266 271 271 259 23 327 215 220 222 219 217 211 205 196 189 235 231 237 213 212 239 228 223 240 248 239 236 236 239 241 238 236 231 223 229 238 248 265 15 114 137 138 142 142 145 148 149 154 159 164 167 170
341 338 336 335 334 334 333 333 331 326 320 317 315 312 311 310 308 307 304 300 296 295 297 300 303 297 283 281 288 275 262 262 267 264 262 260 260 261 242 243 310 299 239 233 228 227 221 218 216 204 210 245 236 249 223 204 249 241 215 226 242 249 251 245 239 241 244 244 230 207 214 236 243 254 97 135 143 144 144 142 148 151 152 157 162 167 172 174
339 337 335 333 333 333 331 331 332 331 324 318 314 309 308 307 307 309 309 308 298 293 293 290 298 297 285 282 268 258 269 268 254 250 250 255 259 250 231 241 280 280 256 252 235 229 225 225 219 205 218 238 231 264 254 237 266 267 228 222 239 243 255 254 246 246 238 245 233 208 215 242 240 246 172 155 150 152 148 145 152 153 153 158 161 166 171 174
338 337 335 332 331 330 329 329 329 330 326 319 314 309 307 305 306 306 308 309 302 294 286 284 291 288 288 278 255 252 268 270 260 260 255 255 251 245 254 258 263 265 262 261 235 221 229 230 218 205 208 215 204 244 277 266 265 270 248 230 242 235 247 243 240 246 221 237 231 201 218 248 238 232 159 156 156 156 151 150 155 156 156 158 160 166 170 174
338 337 335 332 330 328 327 327 326 325 322 318 315 310 308 305 306 305 304 305 304 298 278 277 281 278 287 271 258 263 277 279 278 273 260 254 254 254 264 260 253 251 249 252 233 212 222 233 224 216 216 217 201 223 295 322 308 268 238 218 238 233 244 229 228 235 213 237 223 187 213 252 253 180 151 156 159 154 151 154 158 159 160 161 163 167 171 175
338 337 333 329 327 325 325 325 322 320 317 315 313 310 307 306 305 303 302 300 302 298 273 267 270 271 274 266 271 285 290 285 278 272 259 255 264 261 253 248 246 241 235 240 235 214 211 233 231 223 228 234 249 288 315 336 327 213 180 193 206 219 248 212 209 204 201 238 210 183 221 247 258 153 155 160 162 156 153 157 159 161 164 166 167 169 173 177
335 333 330 327 325 324 324 322 319 317 315 312 310 309 308 307 304 301 300 295 295 292 267 253 256 264 270 274 284 295 294 292 283 278 267 262 270 260 243 240 244 239 233 235 233 223 215 231 225 217 231 239 237 280 333 348 313 181 182 203 197 205 276 226 204 189 193 225 197 184 224 247 247 169 166 165 165 160 154 159 163 164 166 168 171 173 176 179
332 331 329 328 325 323 323 321 320 318 315 312 310 307 306 308 306 301 295 286 285 275 247 247 251 254 267 280 291 282 283 311 318 322 305 280 277 261 247 243 245 239 232 231 229 231 227 225 217 209 217 229 211 196 15 327 288 247 200 198 189 189 225 252 233 195 188 196 199 197 205 241 234 172 171 170 171 163 155 162 167 167 169 169 174 178 179 182
331 330 329 327 324 323 323 322 322 319 316 315 311 307 308 312 310 299 286 275 271 248 227 244 252 257 257 264 280 276 285 313 322 325 314 295 290 274 266 255 245 234 228 228 229 235 227 212 203 203 210 211 172 149 184 227 225 248 181 175 204 177 173 217 261 211 182 187 214 209 202 226 195 166 173 178 178 167 159 166 170 170 171 171 176 181 184 187
331 329 329 327 325 325 325 325 324 321 319 317 313 310 313 317 310 292 281 271 252 217 226 237 229 271 263 255 268 279 291 311 311 306 289 281 288 279 268 254 241 225 226 231 228 221 208 204 189 171 194 198 193 176 192 208 182 172 151 161 213 162 174 200 229 215 175 185 205 195 204 219 160 163 175 180 182 174 167 170 172 174 173 173 177 182 187 190
330 330 329 327 327 325 324 325 323 322 321 317 312 313 319 326 318 297 291 255 193 176 222 215 200 211 263 262 273 287 296 303 304 299 281 274 290 279 251 238 229 217 223 224 216 204 182 180 184 185 198 196 198 188 197 200 136 155 161 152 167 160 194 207 220 223 169 170 198 186 195 196 160 173 177 180 186 181 171 169 172 175 175 176 178 183 189 191
330 330 329 327 326 324 324 323 321 322 322 317 315 321 335 346 338 326 311 284 248 241 258 237 217 227 257 274 279 288 295 297 294 286 277 266 281 276 239 221 213 206 206 180 193 189 174 185 206 202 203 193 192 179 194 239 145 148 154 151 167 166 214 218 220 229 167 157 203 185 184 192 174 181 180 172 176 175 167 168 175 176 177 180 181 186 188 189
331 331 329 326 324 323 322 320 319 322 321 316 315 324 341 342 330 310 309 297 283 271 265 264 250 245 261 274 278 286 295 298 290 274 259 247 246 249 218 199 189 197 195 192 234 182 177 206 216 202 199 181 181 164 175 231 223 145 154 167 173 172 212 227 218 229 178 162 210 179 176 197 177 175 175 160 163 177 176 173 178 178 178 183 185 187 187 187
332 331 328 325 323 322 321 319 321 322 319 315 312 318 328 329 313 302 306 295 289 285 270 268 262 258 265 271 273 278 279 285 288 273 244 234 230 205 187 178 182 192 166 183 252 209 196 216 199 180 188 160 164 165 168 214 229 189 166 150 175 196 218 251 252 249 170 169 216 180 173 192 124 129 141 161 175 193 187 181 180 179 178 184 187 187 186 185
329 329 328 324 322 322 319 318 322 323 320 317 309 312 321 321 309 307 305 286 289 286 268 262 256 256 262 266 268 263 242 238 269 265 241 215 206 189 181 178 185 176 164 191 200 190 206 209 173 170 185 163 161 173 171 200 224 190 159 144 203 225 171 226 261 273 140 148 163 156 153 54 57 99 123 183 192 176 190 195 186 183 183 187 190 189 187 185
330 331 330 327 323 324 322 319 323 324 321 318 312 309 314 310 305 313 310 282 285 282 271 267 256 254 257 263 265 237 222 222 236 251 241 213 202 191 188 181 176 187 192 196 195 204 249 201 163 166 189 179 168 176 175 188 211 192 162 156 195 212 169 214 241 177 120 81 121 119 84 344 107 133 156 194 164 158 174 182 181 188 192 193 193 193 191 188
333 333 332 329 326 328 330 329 327 327 326 325 320 311 309 306 302 319 322 280 274 281 283 279 253 255 262 262 252 216 218 228 231 239 234 201 191 182 192 183 177 206 198 181 189 212 259 230 170 168 195 189 174 185 183 176 185 210 199 175 185 188 196 269 276 160 134 261 223 125 106 287 178 152 201 206 167 165 165 165 176 188 194 196 197 197 195 192
333 334 335 329 328 331 331 333 329 328 333 329 323 315 308 303 301 320 334 272 283 271 259 272 232 266 309 250 218 196 210 250 241 240 236 221 205 183 189 185 187 214 188 168 202 201 230 235 186 174 190 190 188 198 189 170 156 210 217 185 188 192 204 249 257 151 167 220 253 163 162 241 294 220 217 200 182 183 170 167 180 188 192 197 199 197 193 191
333 336 335 327 329 330 319 324 329 326 329 322 322 323 315 309 309 327 348 263 280 227 206 239 225 285 336 270 193 168 175 271 242 234 229 225 216 199 197 185 186 200 167 162 220 195 189 212 200 182 182 189 199 200 185 169 150 219 214 172 179 197 202 208 168 148 184 229 300 257 138 139 263 230 197 178 177 186 188 185 186 191 195 199 201 196 191 190
332 334 331 321 324 319 300 310 321 317 318 324 337 342 330 322 316 339 12 278 290 150 205 241 249 270 306 266 183 183 231 304 239 218 220 220 210 191 187 204 192 180 171 180 209 180 178 201 199 182 185 193 192 178 161 158 155 212 192 163 179 193 189 186 165 160 114 34 307 274 124 125 264 256 157 162 182 195 203 202 195 194 196 199 200 196 192 192
330 330 323 312 313 309 295 302 309 308 310 326 352 357 345 337 330 16 92 278 354 152 192 283 294 279 300 232 185 201 238 270 346 199 197 205 208 193 193 224 201 179 183 190 209 194 180 198 193 179 192 189 164 162 156 160 169 175 153 140 148 166 172 182 187 177 83 187 240 218 153 138 269 265 161 160 194 206 210 210 203 198 197 197 197 195 194 193
328 327 316 301 304 308 303 303 305 302 304 323 353 352 341 356 30 1 225 244 338 133 185 281 316 317 336 331 190 212 236 251 301 211 170 178 195 201 232 245 221 186 185 186 216 248 204 188 192 187 188 163 149 168 163 164 169 145 140 126 67 55 134 156 155 117 143 246 238 202 173 151 239 257 188 178 200 199 199 201 200 200 198 195 193 192 194 193
327 324 306 287 295 301 299 303 310 304 299 310 336 347 330 9 107 241 242 271 285 213 210 252 290 340 17 32 202 214 222 244 293 284 175 159 173 194 214 241 231 175 172 176 211 255 251 185 187 174 166 155 147 176 174 172 173 153 142 135 105 328 1 43 22 95 177 248 252 198 169 159 214 251 202 204 212 197 191 195 193 195 194 191 190 190 191 192
329 321 296 277 287 293 291 298 307 302 294 292 313 356 349 267 225 226 236 344 301 225 232 232 250 297 328 31 260 215 216 233 239 257 230 157 156 195 186 196 192 152 176 186 192 234 252 213 183 156 167 167 159 173 178 180 183 167 147 143 154 196 184 195 224 189 205 244 245 176 154 170 230 243 205 208 215 201 194 200 195 190 189 187 187 186 188 188
331 319 292 272 284 295 292 290 294 291 286 287 303 351 139 248 254 229 224 294 263 204 211 239 243 270 277 273 261 204 202 218 192 233 246 172 158 195 200 214 216 153 167 173 173 193 220 261 207 169 171 176 174 177 182 187 186 178 167 163 168 160 169 201 213 208 221 239 245 168 159 200 258 248 210 206 209 202 199 205 199 189 182 181 182 183 184 185
333 320 292 273 287 299 289 279 285 278 273 281 305 263 221 245 248 245 234 223 241 257 251 260 263 260 242 227 253 197 177 201 212 221 227 184 170 188 205 221 221 195 124 149 176 179 169 233 214 188 170 175 183 188 173 157 168 180 153 137 160 168 166 187 193 183 200 236 275 150 165 194 193 237 235 211 203 195 190 191 182 176 173 173 176 180 183 183
337 322 293 289 301 305 285 272 275 272 269 270 272 237 243 254 253 268 274 245 254 291 285 288 288 250 204 203 248 244 155 176 222 227 215 187 187 193 195 206 209 206 142 164 192 176 178 241 216 193 178 170 181 192 160 132 157 184 119 121 181 187 151 133 173 174 166 200 252 166 194 217 196 276 302 179 166 157 150 149 148 155 165 168 172 178 183 182
342 333 298 306 341 333 311 285 272 265 258 249 249 249 241 246 242 232 276 283 279 297 309 315 357 110 123 183 230 191 141 135 196 216 240 194 197 197 183 188 197 192 170 168 181 160 170 259 215 185 196 181 174 181 176 161 164 166 144 171 198 169 136 126 194 164 110 158 232 200 200 286 273 315 337 113 136 136 137 141 145 153 162 167 173 178 182 180
344 350 339 355 6 345 320 291 277 261 240 217 249 262 250 246 250 227 262 294 299 287 317 331 94 109 122 138 63 126 130 133 180 192 238 188 209 202 172 196 200 194 198 176 192 177 156 259 241 183 196 199 175 174 191 182 155 148 188 205 176 117 105 108 156 355 72 163 250 203 169 193 153 258 322 112 137 149 147 146 150 156 164 172 177 180 182 177
340 346 26 31 3 346 327 298 280 259 235 223 264 269 264 242 236 224 254 291 309 265 281 338 208 289 67 103 56 84 144 221 167 180 220 175 223 195 164 196 215 203 208 176 173 282 158 197 264 188 187 201 173 169 194 206 175 155 182 191 150 146 192 130 150 168 128 178 249 297 171 199 184 203 201 156 164 169 155 151 158 165 173 176 176 180 181 174
346 358 39 17 353 345 335 309 282 259 240 251 286 278 274 273 266 267 272 278 292 264 282 352 341 303 345 65 83 86 242 235 157 180 207 153 227 217 171 183 219 205 193 162 164 291 206 146 222 198 178 163 155 171 189 203 199 171 170 179 161 148 168 167 160 165 165 185 206 232 358 248 223 205 184 181 181 172 162 165 172 175 176 175 174 178 179 174
10 39 34 7 350 344 333 307 281 258 246 260 280 276 288 298 291 291 292 277 229 286 303 332 339 341 352 24 87 166 264 253 170 194 217 168 201 248 182 183 219 201 174 162 180 253 318 148 190 216 159 143 170 197 187 182 185 184 175 172 174 157 140 146 162 153 141 159 179 158 237 261 251 202 187 191 183 172 171 175 178 175 173 173 174 175 177 176
20 49 16 360 345 329 324 313 282 257 264 261 260 262 292 310 303 300 309 304 205 257 285 284 305 303 249 283 161 181 236 262 187 175 214 183 177 252 204 196 205 172 159 176 201 202 233 178 168 177 152 162 191 193 168 163 169 172 170 174 184 178 129 133 205 252 116 147 174 150 180 263 265 206 196 196 184 179 179 173 170 172 171 171 174 174 176 176
13 31 14 5 349 304 299 298 274 269 265 297 306 293 287 301 304 300 314 337 195 223 240 248 262 246 213 210 209 205 211 276 232 193 194 181 186 222 209 192 196 182 158 187 223 192 171 126 123 186 184 193 202 169 155 156 152 154 170 187 181 170 134 137 188 230 153 159 166 125 156 259 268 241 214 205 192 186 179 171 167 170 171 170 171 174 175 175
351 319 16 18 6 320 303 280 297 314 280 307 315 302 276 269 289 302 316 336 330 297 274 255 240 226 223 228 250 292 335 289 247 236 206 157 194 218 199 178 193 199 151 186 230 192 173 182 281 197 184 230 18 107 135 146 134 142 183 178 165 179 172 148 169 182 162 179 155 108 173 257 283 294 170 101 83 107 149 162 160 162 166 167 169 171 174 174
331 310 354 15 14 315 334 324 312 331 317 315 323 321 301 232 245 296 321 326 324 340 319 279 232 219 234 251 251 277 309 238 320 334 318 15 216 220 203 184 191 204 177 189 179 139 181 225 135 137 135 111 88 105 129 166 157 160 186 164 162 177 166 146 134 104 131 195 157 127 195 248 290 345 82 103 100 97 112 140 149 153 158 165 168 170 173 173
338 318 341 1 30 127 30 5 295 314 319 320 325 330 333 322 288 303 303 295 306 327 310 276 255 243 254 353 285 283 312 160 74 3 340 320 311 220 198 189 194 208 217 224 230 119 206 217 142 149 158 153 161 170 175 180 171 159 155 148 157 161 157 162 140 94 150 202 136 134 198 254 303 24 108 121 115 111 115 134 149 158 161 164 167 168 171 173
359 3 332 350 22 78 10 352 329 318 319 321 322 327 340 343 330 316 281 280 329 331 295 263 281 266 254 8 46 359 1 133 166 355 342 315 322 310 203 195 200 213 222 243 264 272 114 203 172 155 160 167 180 201 194 143 129 144 151 143 149 150 140 131 117 138 183 159 137 209 196 208 285 175 144 152 142 138 140 141 150 161 165 165 165 165 169 172
24 37 348 348 345 341 348 346 349 343 315 314 321 327 335 337 332 332 300 305 341 333 299 271 356 8 346 349 38 19 348 56 100 0 335 316 300 305 290 202 201 219 222 239 254 222 120 238 204 151 160 180 174 171 164 129 129 159 161 140 140 142 122 112 137 188 164 123 244 253 190 162 212 207 180 175 162 150 153 158 160 163 165 165 164 164 166 169
30 5 353 353 328 312 340 328 327 325 310 310 318 327 336 339 339 343 332 306 335 344 349 345 352 3 354 346 31 29 352 38 50 342 328 326 319 329 355 109 163 228 224 244 279 170 129 223 201 131 152 190 153 145 147 130 131 156 160 146 136 145 146 145 176 195 152 139 215 218 178 180 209 206 190 179 168 166 168 168 166 163 162 164 164 164 166 168
20 356 331 344 326 283 287 298 304 308 313 323 334 339 339 337 334 334 321 300 325 345 12 0 338 344 342 339 20 41 18 43 5 308 330 342 330 345 34 90 66 257 226 261 309 144 125 318 285 114 107 52 42 113 130 125 124 133 153 149 133 146 168 162 164 167 132 133 192 167 162 206 228 209 202 174 143 155 156 157 160 161 164 166 167 167 168 170
10 358 324 325 316 287 282 294 305 306 315 334 344 340 335 329 330 332 319 310 323 328 355 355 333 331 334 338 12 69 45 248 260 266 304 351 343 1 46 99 296 314 298 283 292 190 118 281 300 77 86 30 13 63 99 116 127 115 84 92 103 116 141 131 134 141 107 83 100 114 124 253 253 185 122 97 122 135 141 150 159 166 168 167 167 169 168 169
6 0 337 319 305 300 302 312 320 308 314 344 343 336 334 323 324 329 320 309 308 300 313 334 325 323 331 335 351 107 240 261 246 249 257 271 271 260 278 276 314 349 4 330 292 328 60 64 3 55 80 19 3 65 90 86 99 93 57 76 108 116 152 170 147 152 145 127 108 97 108 250 243 147 108 113 135 141 147 154 159 168 172 170 169 170 169 170
359 357 352 332 294 300 324 327 325 320 327 336 331 331 324 309 314 323 321 291 284 293 297 295 301 315 328 321 315 316 313 296 277 271 267 258 254 252 255 265 284 304 305 291 304 1 64 80 54 71 99 22 340 115 117 85 82 80 291 187 146 145 181 158 104 151 158 143 128 142 202 203 160 130 124 131 151 162 171 171 168 170 172 172 172 172 172 174